Cloud_Cover
100 100 86 90 76 75 32 5 5 5 5 5 8 5 5 9 79 80 35 83 100 90 96 100 100 100 100 100 100 100 100 100 100 25 100 100 100 100 100 100 100 100 100
100 100 94 20 9 5 5 5 5 5 38 87 17 5 26 100 100 84 43 98 95 99 100 100 100 100 100 100 100 100 100 100 100 92 100 100 100 100 100 100 100 100 100
91 94 28 5 5 5 5 5 18 87 99 7 6 80 100 99 95 91 100 100 93 85 84 97 65 76 44 21 80 100 100 100 100 100 100 100 100 100 100 100 100 100 100
81 13 13 19 5 5 49 82 100 98 26 24 35 42 94 94 95 69 33 95 93 73 33 8 5 5 5 5 34 99 100 100 100 100 100 100 100 100 100 100 100 100 100
85 53 28 16 36 87 100 100 100 55 26 14 44 70 54 37 11 20 42 33 67 5 5 5 4 5 5 52 85 95 100 100 100 100 100 100 100 100 100 100 100 100 100
63 98 60 93 100 100 100 95 86 19 64 83 94 97 95 92 5 5 3 5 5 5 5 5 5 10 100 52 100 95 81 100 100 100 100 100 100 100 100 100 100 100 100
100 89 99 100 100 100 98 52 46 10 77 100 100 97 100 100 5 5 5 5 5 5 5 5 18 78 100 100 100 83 99 100 98 98 100 100 100 100 100 100 100 100 100
99 99 96 100 100 94 99 86 18 77 70 100 100 100 88 98 5 5 5 5 5 52 18 47 95 100 100 86 100 100 100 100 100 100 100 100 100 100 100 100 100 100 99
100 100 100 94 96 100 98 100 94 100 80 98 96 100 100 100 10 5 5 51 98 96 94 98 93 82 99 70 100 100 100 100 100 100 100 89 27 35 78 100 99 100 100
100 100 100 100 100 100 100 100 100 97 85 92 100 100 89 77 59 5 5 32 98 99 98 100 100 39 9 100 100 100 100 100 100 100 100 100 100 100 90 100 100 100 100
100 100 100 100 100 100 100 100 98 98 93 100 74 78 91 88 89 5 5 17 94 98 99 98 100 17 18 94 67 100 96 100 100 100 100 100 100 100 100 100 100 100 100
100 100 100 100 100 100 100 100 99 98 98 100 100 81 100 96 93 43 5 5 20 98 96 99 81 5 5 5 25 8 59 98 100 100 100 100 100 100 100 100 100 100 100
100 100 100 100 100 100 100 86 100 99 100 100 100 100 100 100 100 99 15 5 55 94 100 13 5 5 5 2 4 5 22 76 100 100 100 100 100 100 100 100 100 100 94
100 100 100 100 100 100 98 100 100 100 100 100 100 100 100 100 100 100 100 100 100 100 99 31 20 4 2 2 15 5 5 36 100 100 100 100 100 100 100 100 100 100 100
100 100 100 100 93 85 93 100 100 100 100 99 100 100 100 100 100 100 51 94 100 85 7 96 100 93 18 5 5 5 5 5 62 100 100 100 100 100 100 100 100 100 100
100 100 52 100 94 100 98 100 100 90 23 5 5 6 30 86 99 59 7 26 94 5 57 99 100 100 100 39 5 5 5 5 5 54 100 100 100 100 100 100 100 100 100
100 100 78 99 100 100 94 100 100 100 97 81 5 5 5 6 66 93 25 72 91 71 92 100 100 100 99 90 14 5 5 5 5 5 62 100 100 100 100 100 100 100 100
100 68 85 97 100 98 95 96 100 100 100 99 96 96 81 5 5 46 55 99 99 100 86 100 100 100 100 95 22 8 7 19 14 5 8 93 100 100 100 100 100 100 100
9 81 99 100 100 100 100 96 98 100 100 100 100 100 100 62 27 10 68 99 100 100 100 100 100 100 100 100 99 100 92 94 12 7 60 81 100 100 100 100 100 100 100
98 97 75 79 88 96 100 100 100 100 100 100 100 100 100 100 97 94 87 99 100 100 100 100 100 100 100 100 100 100 99 100 98 5 5 84 96 100 87 100 100 100 100
100 100 100 90 100 100 100 98 98 100 100 100 100 96 100 91 100 100 100 100 100 100 100 100 100 100 100 100 100 100 100 100 100 30 5 19 84 92 76 79 99 100 80
100 100 100 100 100 100 100 100 96 100 100 100 100 100 99 74 92 91 92 89 94 100 100 100 100 100 100 100 100 100 100 100 100 100 57 21 100 100 66 81 64 85 100
100 100 100 100 100 100 100 100 100 96 99 96 99 98 99 97 99 100 89 79 88 100 100 100 100 100 100 100 98 100 100 100 100 99 5 63 100 100 94 98 85 55 95
100 100 100 100 100 100 100 94 100 100 100 100 100 100 100 100 100 100 91 100 99 83 94 100 100 100 100 100 100 100 100 98 100 98 5 6 69 95 54 29 100 78 63
100 100 100 85 100 100 100 100 100 100 100 100 100 100 100 100 100 100 100 100 100 100 100 100 100 100 100 100 99 100 100 86 55 73 16 20 75 29 38 7 65 82 41
100 100 100 100 100 100 100 100 100 100 100 100 100 100 100 100 100 100 100 100 100 100 100 100 100 100 100 100 100 100 100 100 64 54 5 5 30 67 66 38 54 59 30